Terminal Aerodrome Forecast
Issued by NWS

Home | Current Version | Previous Version | Text Only | Print | Product List | Glossary On
Versions: 1 2 3 4 5 6 7 8 9 10 11 12 13 14 15 16 17 18 19 20 21 22 23 24 25 26 27
000
FTUS43 KDVN 072320
TAFBRL
TAF
KBRL 072320Z 0800/0824 36008KT 4SM HZ SCT050
     FM080200 04004KT 4SM HZ SKC
     FM080800 06005KT 4SM BR SCT150
     FM081200 07005KT 6SM BR BKN150
     FM081500 09006KT 6SM BR VCSH BKN060 OVC150
     FM081900 10005KT 4SM -SHRA OVC025=

USA.gov is the U.S. government's official web portal to all federal, state and local government web resources and services.